| time (UTC) | temp F | wind direction | speed MPH | gust MPH | rain 1hr in | rain 24hr in | rain mn in | humidity % | barometer mb |
| 20260505200743 | 53 | 315 | 2.0 | 13.0 | 0.00 | 0.00 | 0.00 | 37 | 1005.4 |
| 20260505200240 | 52 | 224 | 3.0 | 19.0 | 0.00 | 0.00 | 0.00 | 36 | 1005.5 |
| 20260505195735 | 52 | 308 | 3.0 | 15.0 | 0.00 | 0.00 | 0.00 | 36 | 1005.8 |
| 20260505195233 | 51 | 113 | 2.0 | 18.0 | 0.00 | 0.00 | 0.00 | 37 | 1005.7 |
| 20260505194730 | 50 | 224 | 0.0 | 13.0 | 0.00 | 0.00 | 0.00 | 37 | 1005.6 |
| 20260505194227 | 51 | 315 | 8.0 | 14.0 | 0.00 | 0.00 | 0.00 | 36 | 1005.8 |
| 20260505193722 | 51 | 344 | 4.0 | 11.0 | 0.00 | 0.00 | 0.00 | 36 | 1005.6 |
| 20260505193220 | 52 | 316 | 7.0 | 13.0 | 0.00 | 0.00 | 0.00 | 34 | 1005.5 |
| 20260505192718 | 52 | 273 | 5.0 | 15.0 | 0.00 | 0.00 | 0.00 | 34 | 1005.7 |
| 20260505192216 | 53 | 317 | 5.0 | 16.0 | 0.00 | 0.00 | 0.00 | 35 | 1005.6 |
| 20260505191714 | 51 | 156 | 5.0 | 15.0 | 0.00 | 0.00 | 0.00 | 36 | 1005.8 |
| 20260505191212 | 50 | 279 | 5.0 | 16.0 | 0.00 | 0.00 | 0.00 | 37 | 1005.8 |
| 20260505190708 | 50 | 118 | 3.0 | 17.0 | 0.00 | 0.00 | 0.00 | 37 | 1005.7 |
| 20260505190207 | 50 | 324 | 9.0 | 26.0 | 0.00 | 0.00 | 0.00 | 37 | 1005.7 |
| 20260505185704 | 50 | 251 | 4.0 | 20.0 | 0.00 | 0.00 | 0.00 | 37 | 1005.7 |
| 20260505185201 | 50 | 322 | 6.0 | 18.0 | 0.00 | 0.00 | 0.00 | 37 | 1005.7 |
| 20260505184657 | 50 | 47 | 4.0 | 13.0 | 0.00 | 0.00 | 0.00 | 37 | 1005.7 |
| 20260505184154 | 49 | 170 | 5.0 | 20.0 | 0.00 | 0.00 | 0.00 | 39 | 1005.8 |
| 20260505183651 | 49 | 329 | 0.0 | 17.0 | 0.00 | 0.00 | 0.00 | 39 | 1005.7 |
| 20260505183149 | 50 | 301 | 3.0 | 7.0 | 0.00 | 0.00 | 0.00 | 38 | 1005.5 |
| 20260505182645 | 50 | 324 | 4.0 | 22.0 | 0.00 | 0.00 | 0.00 | 37 | 1005.7 |
| 20260505182142 | 51 | 188 | 4.0 | 20.0 | 0.00 | 0.00 | 0.00 | 38 | 1005.5 |
| 20260505181638 | 50 | 211 | 2.0 | 15.0 | 0.00 | 0.00 | 0.00 | 37 | 1005.6 |
| 20260505181136 | 51 | 356 | 3.0 | 12.0 | 0.00 | 0.00 | 0.00 | 35 | 1005.5 |
| 20260505180632 | 50 | 156 | 3.0 | 11.0 | 0.00 | 0.00 | 0.00 | 36 | 1005.6 |
| 20260505180129 | 50 | 1 | 9.0 | 10.0 | 0.00 | 0.00 | 0.00 | 36 | 1005.7 |
| 20260505175625 | 50 | 116 | 3.0 | 14.0 | 0.00 | 0.00 | 0.00 | 35 | 1005.4 |
| 20260505175122 | 51 | 356 | 3.0 | 13.0 | 0.00 | 0.00 | 0.00 | 37 | 1005.2 |
| 20260505174618 | 50 | 199 | 6.0 | 21.0 | 0.00 | 0.00 | 0.00 | 35 | 1005.4 |
| 20260505174115 | 51 | 276 | 5.0 | 11.0 | 0.00 | 0.00 | 0.00 | 36 | 1005.6 |
| 20260505173611 | 51 | 236 | 3.0 | 19.0 | 0.00 | 0.00 | 0.00 | 40 | 1005.5 |
| 20260505173103 | 50 | 294 | 15.0 | 19.0 | 0.00 | 0.00 | 0.00 | 38 | 1005.6 |
| 20260505172600 | 48 | 178 | 2.0 | 12.0 | 0.00 | 0.00 | 0.00 | 39 | 1005.5 |
| 20260505172056 | 49 | 299 | 11.0 | 23.0 | 0.00 | 0.00 | 0.00 | 37 | 1005.7 |
| 20260505171551 | 51 | 240 | 2.0 | 9.0 | 0.00 | 0.00 | 0.00 | 37 | 1005.6 |
| 20260505171049 | 50 | 267 | 5.0 | 11.0 | 0.00 | 0.00 | 0.00 | 37 | 1005.5 |
| 20260505170545 | 49 | 357 | 4.0 | 24.0 | 0.00 | 0.00 | 0.00 | 36 | 1005.6 |
| 20260505170041 | 49 | 326 | 7.0 | 18.0 | 0.00 | 0.00 | 0.00 | 37 | 1005.7 |
| 20260505165531 | 50 | 273 | 4.0 | 14.0 | 0.00 | 0.00 | 0.00 | 37 | 1005.6 |
| 20260505165027 | 48 | 313 | 5.0 | 16.0 | 0.00 | 0.00 | 0.00 | 37 | 1005.5 |
| 20260505164523 | 49 | 313 | 15.0 | 18.0 | 0.00 | 0.00 | 0.00 | 37 | 1005.2 |
| 20260505164021 | 48 | 10 | 6.0 | 16.0 | 0.00 | 0.00 | 0.00 | 38 | 1005.4 |
| 20260505163519 | 50 | 347 | 5.0 | 15.0 | 0.00 | 0.00 | 0.00 | 38 | 1005.8 |
| 20260505163015 | 48 | 340 | 7.0 | 11.0 | 0.00 | 0.00 | 0.00 | 40 | 1005.5 |
| 20260505162508 | 50 | 94 | 1.0 | 16.0 | 0.00 | 0.00 | 0.00 | 39 | 1005.6 |
| 20260505162005 | 50 | 59 | 3.0 | 13.0 | 0.00 | 0.00 | 0.00 | 37 | 1005.7 |
| 20260505161456 | 49 | 138 | 2.0 | 15.0 | 0.00 | 0.00 | 0.00 | 39 | 1005.6 |
| 20260505160954 | 48 | 168 | 4.0 | 15.0 | 0.00 | 0.00 | 0.00 | 42 | 1005.8 |
| 20260505160452 | 48 | 189 | 3.0 | 10.0 | 0.00 | 0.00 | 0.00 | 43 | 1005.7 |
| 20260505152928 | 48 | 327 | 3.0 | 16.0 | 0.00 | 0.00 | 0.00 | 42 | 1005.6 |
| 20260505152426 | 48 | 86 | 4.0 | 16.0 | 0.00 | 0.00 | 0.00 | 43 | 1005.2 |
| 20260505151925 | 47 | 273 | 4.0 | 18.0 | 0.00 | 0.00 | 0.00 | 40 | 1005.1 |
| 20260505151416 | 47 | 350 | 6.0 | 15.0 | 0.00 | 0.00 | 0.00 | 41 | 1005.2 |
| 20260505150914 | 46 | 29 | 4.0 | 13.0 | 0.00 | 0.00 | 0.00 | 44 | 1005.4 |
| 20260505150410 | 47 | 315 | 7.0 | 12.0 | 0.00 | 0.00 | 0.00 | 44 | 1005.4 |
| 20260505140334 | 45 | 359 | 2.0 | 14.0 | 0.00 | 0.00 | 0.00 | 47 | 1005.2 |
| 20260505130252 | 43 | 327 | 6.0 | 13.0 | 0.00 | 0.00 | 0.00 | 58 | 1004.7 |
| 20260505124743 | 42 | 245 | 2.0 | 10.0 | 0.00 | 0.00 | 0.00 | 63 | 1004.7 |
| 20260505124240 | 42 | 338 | 1.0 | 6.0 | 0.00 | 0.00 | 0.00 | 64 | 1004.6 |
| 20260505123735 | 41 | 306 | 2.0 | 7.0 | 0.00 | 0.00 | 0.00 | 66 | 1004.5 |
| 20260505123232 | 41 | 318 | 5.0 | 10.0 | 0.00 | 0.00 | 0.00 | 65 | 1004.5 |
| 20260505122728 | 40 | 340 | 3.0 | 9.0 | 0.00 | 0.00 | 0.00 | 67 | 1004.6 |
| 20260505122226 | 40 | 309 | 4.0 | 7.0 | 0.00 | 0.00 | 0.00 | 68 | 1004.6 |
| 20260505121722 | 40 | 245 | 0.0 | 7.0 | 0.00 | 0.00 | 0.00 | 67 | 1004.7 |
| 20260505121219 | 39 | 199 | 0.0 | 4.0 | 0.00 | 0.00 | 0.00 | 69 | 1004.4 |
| 20260505120715 | 39 | 18 | 0.0 | 5.0 | 0.00 | 0.00 | 0.00 | 70 | 1004.1 |
| 20260505120211 | 37 | 301 | 4.0 | 7.0 | 0.00 | 0.00 | 0.00 | 72 | 1004.0 |
| 20260505115705 | 35 | 323 | 1.0 | 4.0 | 0.00 | 0.00 | 0.00 | 75 | 1004.0 |
| 20260505115203 | 35 | 275 | 1.0 | 6.0 | 0.00 | 0.00 | 0.00 | 75 | 1003.7 |
| 20260505114700 | 35 | 342 | 1.0 | 5.0 | 0.00 | 0.00 | 0.00 | 76 | 1004.0 |
| 20260505114156 | 34 | 269 | 2.0 | 6.0 | 0.00 | 0.00 | 0.00 | 77 | 1003.5 |
| 20260505113652 | 34 | 347 | 1.0 | 4.0 | 0.00 | 0.00 | 0.00 | 77 | 1003.4 |
| 20260505113149 | 34 | 19 | 0.0 | 5.0 | 0.00 | 0.00 | 0.00 | 77 | 1003.4 |
| 20260505112645 | 34 | 351 | 0.0 | 3.0 | 0.00 | 0.00 | 0.00 | 77 | 1003.4 |
| 20260505112143 | 33 | 266 | 2.0 | 4.0 | 0.00 | 0.00 | 0.00 | 78 | 1003.2 |
| 20260505111642 | 33 | 337 | 2.0 | 4.0 | 0.00 | 0.00 | 0.00 | 77 | 1003.2 |
| 20260505111139 | 33 | 272 | 0.0 | 4.0 | 0.00 | 0.00 | 0.00 | 77 | 1002.9 |
| 20260505110635 | 34 | 331 | 2.0 | 5.0 | 0.00 | 0.00 | 0.00 | 76 | 1003.0 |
| 20260505110133 | 34 | 330 | 3.0 | 4.0 | 0.00 | 0.00 | 0.00 | 75 | 1002.8 |
| 20260505102108 | 36 | 330 | 3.0 | 5.0 | 0.00 | 0.00 | 0.00 | 71 | 1002.5 |
| 20260505101607 | 36 | 320 | 1.0 | 6.0 | 0.00 | 0.00 | 0.00 | 71 | 1002.5 |
| 20260505101103 | 36 | 337 | 4.0 | 7.0 | 0.00 | 0.00 | 0.00 | 70 | 1002.4 |
| 20260505100559 | 36 | 208 | 0.0 | 8.0 | 0.00 | 0.00 | 0.00 | 70 | 1002.2 |
| 20260505100056 | 36 | 355 | 2.0 | 11.0 | 0.00 | 0.00 | 0.00 | 70 | 1002.2 |
| 20260505095552 | 37 | 138 | 1.0 | 6.0 | 0.00 | 0.00 | 0.00 | 70 | 1002.4 |
| 20260505095049 | 37 | 142 | 2.0 | 7.0 | 0.00 | 0.00 | 0.00 | 69 | 1002.2 |
| 20260505094545 | 37 | 11 | 1.0 | 10.0 | 0.00 | 0.00 | 0.00 | 69 | 1002.4 |
| 20260505094042 | 37 | 307 | 3.0 | 11.0 | 0.00 | 0.00 | 0.00 | 68 | 1002.4 |
| 20260505093538 | 38 | 50 | 2.0 | 9.0 | 0.00 | 0.00 | 0.00 | 67 | 1002.4 |
| 20260505093036 | 38 | 84 | 0.0 | 11.0 | 0.00 | 0.00 | 0.00 | 66 | 1002.4 |
| 20260505092533 | 38 | 353 | 5.0 | 7.0 | 0.00 | 0.00 | 0.00 | 66 | 1002.1 |
| 20260505092032 | 38 | 255 | 0.0 | 6.0 | 0.00 | 0.00 | 0.00 | 66 | 1002.2 |
| 20260505091528 | 38 | 269 | 2.0 | 5.0 | 0.00 | 0.00 | 0.00 | 66 | 1002.1 |
| 20260505091027 | 38 | 151 | 1.0 | 8.0 | 0.00 | 0.00 | 0.00 | 66 | 1002.1 |
| 20260505090524 | 38 | 269 | 2.0 | 6.0 | 0.00 | 0.00 | 0.00 | 65 | 1002.1 |
| 20260505090021 | 38 | 233 | 2.0 | 5.0 | 0.00 | 0.00 | 0.00 | 66 | 1002.0 |
| 20260505085519 | 38 | 265 | 4.0 | 5.0 | 0.00 | 0.00 | 0.00 | 67 | 1001.7 |
| 20260505085017 | 38 | 312 | 4.0 | 7.0 | 0.00 | 0.00 | 0.00 | 67 | 1001.7 |
| 20260505084515 | 38 | 319 | 3.0 | 7.0 | 0.00 | 0.00 | 0.00 | 67 | 1001.9 |
| 20260505084013 | 38 | 319 | 2.0 | 5.0 | 0.00 | 0.00 | 0.00 | 67 | 1001.9 |
| 20260505083510 | 38 | 258 | 2.0 | 7.0 | 0.00 | 0.00 | 0.00 | 67 | 1001.7 |
| 20260505083006 | 38 | 346 | 2.0 | 5.0 | 0.00 | 0.00 | 0.00 | 67 | 1001.5 |
| 20260505082502 | 38 | 245 | 0.0 | 5.0 | 0.00 | 0.00 | 0.00 | 67 | 1001.4 |
| 20260505081959 | 38 | 244 | 2.0 | 4.0 | 0.00 | 0.00 | 0.00 | 67 | 1001.6 |
| 20260505081455 | 38 | 241 | 0.0 | 4.0 | 0.00 | 0.00 | 0.00 | 66 | 1001.3 |
| 20260505080952 | 39 | 188 | 0.0 | 8.0 | 0.00 | 0.00 | 0.00 | 66 | 1001.4 |
| 20260505080448 | 38 | 339 | 3.0 | 6.0 | 0.00 | 0.00 | 0.00 | 67 | 1001.5 |
| 20260505075944 | 38 | 340 | 2.0 | 3.0 | 0.00 | 0.00 | 0.00 | 66 | 1001.3 |
| 20260505075441 | 39 | 246 | 0.0 | 3.0 | 0.00 | 0.00 | 0.00 | 65 | 1001.6 |
| 20260505074938 | 39 | 219 | 2.0 | 4.0 | 0.00 | 0.00 | 0.00 | 65 | 1001.2 |
| 20260505074436 | 39 | 275 | 0.0 | 5.0 | 0.00 | 0.00 | 0.00 | 64 | 1001.3 |
| 20260505073933 | 40 | 279 | 4.0 | 5.0 | 0.00 | 0.00 | 0.00 | 63 | 1001.4 |
| 20260505073430 | 39 | 241 | 4.0 | 7.0 | 0.00 | 0.00 | 0.00 | 63 | 1001.2 |
| 20260505072927 | 39 | 330 | 3.0 | 5.0 | 0.00 | 0.00 | 0.00 | 63 | 1001.3 |
| 20260505072423 | 39 | 7 | 1.0 | 6.0 | 0.00 | 0.00 | 0.00 | 63 | 1001.4 |
| 20260505071919 | 40 | 250 | 2.0 | 7.0 | 0.00 | 0.00 | 0.00 | 62 | 1001.4 |
| 20260505071415 | 40 | 264 | 2.0 | 5.0 | 0.00 | 0.00 | 0.00 | 61 | 1001.2 |
| 20260505070914 | 41 | 335 | 0.0 | 4.0 | 0.00 | 0.00 | 0.00 | 61 | 1001.0 |
| 20260505070410 | 41 | 259 | 3.0 | 5.0 | 0.00 | 0.00 | 0.00 | 60 | 1001.2 |
| 20260505065906 | 41 | 327 | 4.0 | 7.0 | 0.00 | 0.00 | 0.00 | 59 | 1001.3 |
| 20260505065403 | 41 | 337 | 2.0 | 7.0 | 0.00 | 0.00 | 0.00 | 59 | 1001.0 |
| 20260505064859 | 41 | 8 | 1.0 | 6.0 | 0.00 | 0.00 | 0.00 | 59 | 1001.2 |
| 20260505064357 | 41 | 296 | 3.0 | 9.0 | 0.00 | 0.00 | 0.00 | 59 | 1001.3 |
| 20260505063855 | 41 | 49 | 2.0 | 7.0 | 0.00 | 0.00 | 0.00 | 59 | 1001.1 |
| 20260505063355 | 41 | 271 | 1.0 | 5.0 | 0.00 | 0.00 | 0.00 | 59 | 1001.2 |
| 20260505062852 | 41 | 307 | 3.0 | 9.0 | 0.00 | 0.00 | 0.00 | 60 | 1001.0 |
| 20260505062350 | 41 | 294 | 0.0 | 5.0 | 0.00 | 0.00 | 0.00 | 60 | 1001.3 |
| 20260505061846 | 41 | 223 | 1.0 | 6.0 | 0.00 | 0.00 | 0.00 | 60 | 1001.1 |
| 20260505061344 | 41 | 279 | 1.0 | 7.0 | 0.00 | 0.00 | 0.00 | 59 | 1001.0 |
| 20260505060842 | 41 | 353 | 1.0 | 5.0 | 0.00 | 0.00 | 0.00 | 59 | 1001.1 |
| 20260505060338 | 41 | 205 | 1.0 | 5.0 | 0.00 | 0.00 | 0.00 | 59 | 1001.4 |
| 20260505055834 | 41 | 241 | 0.0 | 4.0 | 0.00 | 0.00 | 0.00 | 58 | 1001.0 |
| 20260505055330 | 41 | 274 | 1.0 | 7.0 | 0.00 | 0.00 | 0.00 | 58 | 1001.0 |
| 20260505054828 | 42 | 306 | 2.0 | 6.0 | 0.00 | 0.00 | 0.00 | 58 | 1001.2 |
| 20260505054325 | 42 | 243 | 0.0 | 5.0 | 0.00 | 0.00 | 0.00 | 57 | 1001.1 |
| 20260505053823 | 42 | 75 | 2.0 | 5.0 | 0.00 | 0.00 | 0.00 | 57 | 1001.1 |
| 20260505053320 | 42 | 226 | 2.0 | 5.0 | 0.00 | 0.00 | 0.00 | 58 | 1001.2 |
| 20260505052817 | 42 | 286 | 4.0 | 7.0 | 0.00 | 0.00 | 0.00 | 58 | 1001.2 |
| 20260505052314 | 42 | 266 | 0.0 | 5.0 | 0.00 | 0.00 | 0.00 | 58 | 1001.1 |
| 20260505051811 | 42 | 142 | 0.0 | 5.0 | 0.00 | 0.00 | 0.00 | 57 | 1001.0 |
| 20260505051308 | 42 | 302 | 2.0 | 4.0 | 0.00 | 0.00 | 0.00 | 57 | 1000.8 |
| 20260505050806 | 42 | 219 | 0.0 | 7.0 | 0.00 | 0.00 | 0.00 | 57 | 1001.0 |
| 20260505050305 | 42 | 246 | 0.0 | 3.0 | 0.00 | 0.00 | 0.00 | 58 | 1001.0 |
| 20260505041734 | 44 | 298 | 4.0 | 10.0 | 0.00 | 0.00 | 0.00 | 54 | 1001.2 |
| 20260505041231 | 44 | 271 | 3.0 | 15.0 | 0.00 | 0.00 | 0.00 | 54 | 1001.0 |
| 20260505040729 | 44 | 317 | 3.0 | 17.0 | 0.00 | 0.00 | 0.00 | 53 | 1000.9 |
| 20260505040226 | 44 | 305 | 5.0 | 13.0 | 0.00 | 0.00 | 0.00 | 53 | 1001.0 |
| 20260505035723 | 44 | 352 | 4.0 | 10.0 | 0.00 | 0.00 | 0.00 | 53 | 1000.7 |
| 20260505035219 | 45 | 19 | 2.0 | 13.0 | 0.00 | 0.00 | 0.00 | 52 | 1000.7 |
| 20260505034716 | 45 | 302 | 7.0 | 13.0 | 0.00 | 0.00 | 0.00 | 52 | 1000.9 |
| 20260505034213 | 45 | 296 | 6.0 | 11.0 | 0.00 | 0.00 | 0.00 | 52 | 1000.9 |
| 20260505033709 | 46 | 307 | 6.0 | 16.0 | 0.00 | 0.00 | 0.00 | 51 | 1000.9 |
| 20260505033207 | 46 | 290 | 5.0 | 18.0 | 0.00 | 0.00 | 0.00 | 51 | 1000.6 |
| 20260505032705 | 46 | 281 | 3.0 | 13.0 | 0.00 | 0.00 | 0.00 | 52 | 1000.8 |
| 20260505032200 | 46 | 25 | 2.0 | 17.0 | 0.00 | 0.00 | 0.00 | 50 | 1001.0 |
| 20260505031658 | 47 | 327 | 10.0 | 22.0 | 0.00 | 0.00 | 0.00 | 51 | 1000.7 |
| 20260505031154 | 47 | 317 | 6.0 | 22.0 | 0.00 | 0.00 | 0.00 | 50 | 1001.0 |
| 20260505030651 | 47 | 271 | 4.0 | 17.0 | 0.00 | 0.00 | 0.00 | 51 | 1000.8 |
| 20260505030147 | 47 | 293 | 2.0 | 16.0 | 0.00 | 0.00 | 0.00 | 51 | 1000.5 |
| 20260505025643 | 48 | 300 | 7.0 | 17.0 | 0.00 | 0.00 | 0.00 | 50 | 1000.5 |
| 20260505025142 | 48 | 298 | 4.0 | 16.0 | 0.00 | 0.00 | 0.00 | 49 | 1000.3 |
| 20260505024639 | 48 | 282 | 6.0 | 17.0 | 0.00 | 0.00 | 0.00 | 48 | 1000.3 |
| 20260505024136 | 48 | 306 | 8.0 | 11.0 | 0.00 | 0.00 | 0.00 | 49 | 1000.0 |
| 20260505023633 | 48 | 301 | 5.0 | 16.0 | 0.00 | 0.00 | 0.00 | 49 | 1000.1 |
| 20260505023131 | 48 | 314 | 6.0 | 19.0 | 0.00 | 0.00 | 0.00 | 48 | 999.8 |
| 20260505022628 | 48 | 343 | 5.0 | 14.0 | 0.00 | 0.00 | 0.00 | 49 | 999.8 |
| 20260505022125 | 49 | 332 | 11.0 | 17.0 | 0.00 | 0.00 | 0.00 | 48 | 999.6 |
| 20260505021622 | 49 | 333 | 6.0 | 12.0 | 0.00 | 0.00 | 0.00 | 49 | 999.5 |
| 20260505021118 | 49 | 267 | 3.0 | 15.0 | 0.00 | 0.00 | 0.00 | 48 | 999.4 |
| 20260505020614 | 49 | 289 | 4.0 | 16.0 | 0.00 | 0.00 | 0.00 | 48 | 999.4 |
| 20260505020110 | 49 | 316 | 6.0 | 12.0 | 0.00 | 0.00 | 0.00 | 48 | 999.4 |
| 20260505015608 | 50 | 298 | 3.0 | 14.0 | 0.00 | 0.00 | 0.00 | 47 | 999.2 |
| 20260505015104 | 50 | 324 | 7.0 | 21.0 | 0.00 | 0.00 | 0.00 | 46 | 999.1 |
| 20260505014601 | 50 | 347 | 13.0 | 19.0 | 0.00 | 0.00 | 0.00 | 46 | 998.9 |
| 20260505014058 | 50 | 283 | 4.0 | 15.0 | 0.00 | 0.00 | 0.00 | 46 | 998.7 |
| 20260505013555 | 51 | 212 | 2.0 | 14.0 | 0.00 | 0.00 | 0.00 | 47 | 998.8 |
| 20260505013052 | 51 | 343 | 7.0 | 22.0 | 0.00 | 0.00 | 0.00 | 46 | 998.8 |
| 20260505012550 | 51 | 298 | 6.0 | 20.0 | 0.00 | 0.00 | 0.00 | 47 | 998.7 |
| 20260505012047 | 51 | 309 | 10.0 | 17.0 | 0.00 | 0.00 | 0.00 | 47 | 998.4 |
| 20260505011543 | 51 | 303 | 8.0 | 17.0 | 0.00 | 0.00 | 0.00 | 47 | 998.4 |
| 20260505011040 | 52 | 310 | 5.0 | 22.0 | 0.00 | 0.00 | 0.00 | 46 | 998.1 |
| 20260505010535 | 52 | 264 | 5.0 | 17.0 | 0.00 | 0.00 | 0.00 | 47 | 998.0 |
| 20260505010032 | 52 | 308 | 9.0 | 19.0 | 0.00 | 0.00 | 0.00 | 46 | 998.0 |
| 20260505005528 | 53 | 318 | 7.0 | 18.0 | 0.00 | 0.00 | 0.00 | 46 | 998.0 |
| 20260505005026 | 53 | 115 | 5.0 | 15.0 | 0.00 | 0.00 | 0.00 | 46 | 997.9 |
| 20260505004523 | 53 | 287 | 6.0 | 16.0 | 0.00 | 0.00 | 0.00 | 45 | 997.8 |
| 20260505004020 | 53 | 329 | 8.0 | 32.0 | 0.00 | 0.00 | 0.00 | 45 | 997.4 |
| 20260505003517 | 54 | 254 | 5.0 | 18.0 | 0.00 | 0.00 | 0.00 | 46 | 997.5 |
| 20260505003015 | 54 | 286 | 8.0 | 21.0 | 0.00 | 0.00 | 0.00 | 45 | 997.6 |
| 20260505002509 | 54 | 319 | 4.0 | 15.0 | 0.00 | 0.00 | 0.00 | 44 | 997.4 |
| 20260505002008 | 55 | 319 | 3.0 | 21.0 | 0.00 | 0.00 | 0.00 | 44 | 997.5 |
| 20260505001506 | 55 | 259 | 11.0 | 14.0 | 0.00 | 0.00 | 0.00 | 44 | 997.4 |
| 20260505001002 | 55 | 327 | 7.0 | 23.0 | 0.00 | 0.00 | 0.00 | 44 | 997.3 |
| 20260505000500 | 55 | 354 | 4.0 | 17.0 | 0.00 | 0.00 | 0.00 | 44 | 997.3 |
| 20260504235957 | 55 | 278 | 5.0 | 24.0 | 0.00 | 0.00 | 0.00 | 44 | 997.2 |
| 20260504235454 | 56 | 327 | 5.0 | 15.0 | 0.00 | 0.00 | 0.00 | 43 | 997.1 |
| 20260504234950 | 56 | 25 | 3.0 | 20.0 | 0.00 | 0.00 | 0.00 | 43 | 997.0 |
| 20260504234448 | 57 | 263 | 7.0 | 22.0 | 0.00 | 0.00 | 0.00 | 41 | 996.9 |
| 20260504233944 | 57 | 295 | 6.0 | 20.0 | 0.00 | 0.00 | 0.00 | 41 | 997.2 |
| 20260504233440 | 57 | 352 | 5.0 | 21.0 | 0.00 | 0.00 | 0.00 | 40 | 997.1 |
| 20260504232937 | 57 | 267 | 4.0 | 20.0 | 0.00 | 0.00 | 0.00 | 41 | 996.7 |
| 20260504232434 | 58 | 287 | 8.0 | 22.0 | 0.00 | 0.00 | 0.00 | 41 | 996.8 |
| 20260504231931 | 58 | 288 | 4.0 | 24.0 | 0.00 | 0.00 | 0.00 | 40 | 996.6 |
| 20260504231427 | 59 | 13 | 5.0 | 19.0 | 0.00 | 0.00 | 0.00 | 39 | 996.6 |
| 20260504230924 | 60 | 308 | 9.0 | 24.0 | 0.00 | 0.00 | 0.00 | 39 | 996.5 |
| 20260504230421 | 59 | 294 | 5.0 | 23.0 | 0.00 | 0.00 | 0.00 | 40 | 996.5 |
| 20260504225920 | 59 | 159 | 5.0 | 16.0 | 0.00 | 0.00 | 0.00 | 40 | 996.5 |
| 20260504225416 | 59 | 330 | 13.0 | 26.0 | 0.00 | 0.00 | 0.00 | 39 | 996.3 |
| 20260504224914 | 60 | 309 | 7.0 | 24.0 | 0.00 | 0.00 | 0.00 | 38 | 996.1 |
| 20260504224410 | 61 | 319 | 4.0 | 19.0 | 0.00 | 0.00 | 0.00 | 36 | 996.0 |
| 20260504223907 | 60 | 22 | 5.0 | 28.0 | 0.00 | 0.00 | 0.00 | 37 | 996.0 |
| 20260504223402 | 61 | 88 | 4.0 | 26.0 | 0.00 | 0.00 | 0.00 | 36 | 995.9 |
| 20260504222859 | 60 | 313 | 6.0 | 30.0 | 0.00 | 0.00 | 0.00 | 36 | 995.9 |
| 20260504222355 | 60 | 125 | 13.0 | 20.0 | 0.00 | 0.00 | 0.00 | 35 | 995.9 |
| 20260504221854 | 62 | 320 | 9.0 | 18.0 | 0.00 | 0.00 | 0.00 | 37 | 995.6 |
| 20260504221350 | 62 | 322 | 7.0 | 20.0 | 0.00 | 0.00 | 0.00 | 37 | 995.4 |
| 20260504220848 | 63 | 325 | 12.0 | 20.0 | 0.00 | 0.00 | 0.00 | 38 | 995.5 |
| 20260504220344 | 62 | 336 | 5.0 | 23.0 | 0.00 | 0.00 | 0.00 | 39 | 995.3 |
| 20260504215842 | 62 | 261 | 5.0 | 17.0 | 0.00 | 0.00 | 0.00 | 38 | 995.6 |
| 20260504215338 | 62 | 321 | 4.0 | 18.0 | 0.00 | 0.00 | 0.00 | 37 | 995.7 |
| 20260504214834 | 62 | 289 | 4.0 | 18.0 | 0.00 | 0.00 | 0.00 | 37 | 995.4 |
| 20260504214331 | 62 | 332 | 6.0 | 22.0 | 0.00 | 0.00 | 0.00 | 36 | 995.6 |
| 20260504213828 | 62 | 296 | 11.0 | 25.0 | 0.00 | 0.00 | 0.00 | 35 | 995.4 |
| 20260504213323 | 63 | 306 | 5.0 | 13.0 | 0.00 | 0.00 | 0.00 | 37 | 995.2 |
| 20260504212821 | 61 | 342 | 5.0 | 21.0 | 0.00 | 0.00 | 0.00 | 34 | 995.2 |
| 20260504212317 | 61 | 322 | 7.0 | 35.0 | 0.00 | 0.00 | 0.00 | 34 | 995.2 |
| 20260504211815 | 61 | 325 | 14.0 | 30.0 | 0.00 | 0.00 | 0.00 | 33 | 995.2 |
| 20260504211311 | 63 | 320 | 10.0 | 22.0 | 0.00 | 0.00 | 0.00 | 33 | 995.1 |
| 20260504210808 | 64 | 277 | 7.0 | 18.0 | 0.00 | 0.00 | 0.00 | 32 | 995.3 |
| 20260504210306 | 64 | 56 | 4.0 | 19.0 | 0.00 | 0.00 | 0.00 | 32 | 995.2 |
| 20260504205803 | 65 | 332 | 13.0 | 29.0 | 0.00 | 0.00 | 0.00 | 30 | 995.1 |
| 20260504205300 | 65 | 78 | 4.0 | 25.0 | 0.00 | 0.00 | 0.00 | 29 | 995.0 |
| 20260504204758 | 64 | 292 | 8.0 | 31.0 | 0.00 | 0.00 | 0.00 | 29 | 995.0 |
| 20260504204256 | 65 | 306 | 7.0 | 24.0 | 0.00 | 0.00 | 0.00 | 30 | 994.9 |
| 20260504203756 | 64 | 316 | 5.0 | 31.0 | 0.00 | 0.00 | 0.00 | 28 | 995.1 |
| 20260504203252 | 65 | 319 | 7.0 | 13.0 | 0.00 | 0.00 | 0.00 | 28 | 994.8 |
| 20260504202747 | 66 | 346 | 2.0 | 14.0 | 0.00 | 0.00 | 0.00 | 28 | 994.5 |
| 20260504202245 | 66 | 86 | 5.0 | 11.0 | 0.00 | 0.00 | 0.00 | 29 | 994.5 |
| 20260504201741 | 66 | 99 | 7.0 | 22.0 | 0.00 | 0.00 | 0.00 | 28 | 994.6 |
| 20260504201238 | 66 | 307 | 8.0 | 20.0 | 0.00 | 0.00 | 0.00 | 28 | 994.7 |